TimeMST,TemperatureF,Dew PointF,Humidity,Sea Level PressureIn,VisibilityMPH,Wind Direction,Wind SpeedMPH,Gust SpeedMPH,PrecipitationIn,Events,Conditions,WindDirDegrees,DateUTC
12:15 AM,3.2,-5.8,66,30.19,10.0,North,4.6,-,N/A,,Clear,360,2013-01-10 07:15:00
12:35 AM,5.0,3.2,92,30.17,10.0,NNE,3.5,-,N/A,,Clear,30,2013-01-10 07:35:00
12:55 AM,3.2,-2.2,78,30.16,10.0,North,4.6,-,N/A,,Clear,360,2013-01-10 07:55:00
1:15 AM,5.0,-2.2,72,30.16,10.0,North,5.8,-,N/A,,Clear,10,2013-01-10 08:15:00
1:35 AM,5.0,1.4,85,30.14,10.0,NNE,6.9,-,N/A,,Clear,20,2013-01-10 08:35:00
1:55 AM,3.2,-0.4,85,30.13,10.0,North,5.8,-,N/A,,Clear,10,2013-01-10 08:55:00
2:15 AM,6.8,1.4,79,30.12,10.0,North,5.8,-,N/A,,Clear,350,2013-01-10 09:15:00
2:35 AM,5.0,-0.4,78,30.12,10.0,North,9.2,-,N/A,,Clear,10,2013-01-10 09:35:00
2:55 AM,6.8,3.2,85,30.11,10.0,North,8.1,-,N/A,,Clear,10,2013-01-10 09:55:00
3:15 AM,6.8,1.4,79,30.11,10.0,North,5.8,-,N/A,,Clear,360,2013-01-10 10:15:00
3:35 AM,5.0,-0.4,78,30.10,10.0,NE,4.6,-,N/A,,Clear,40,2013-01-10 10:35:00
3:55 AM,3.2,-0.4,85,30.08,10.0,NE,4.6,-,N/A,,Clear,40,2013-01-10 10:55:00
4:15 AM,6.8,3.2,85,30.07,10.0,NNE,3.5,-,N/A,,Clear,30,2013-01-10 11:15:00
4:35 AM,5.0,-4.0,66,30.07,10.0,North,6.9,-,N/A,,Clear,360,2013-01-10 11:35:00
4:55 AM,3.2,-2.2,78,30.06,10.0,North,6.9,-,N/A,,Clear,360,2013-01-10 11:55:00
5:15 AM,1.4,-4.0,78,30.07,10.0,North,6.9,-,N/A,,Clear,360,2013-01-10 12:15:00
5:35 AM,5.0,3.2,92,30.07,10.0,NNE,4.6,-,N/A,,Clear,30,2013-01-10 12:35:00
5:55 AM,6.8,3.2,85,30.05,10.0,ENE,4.6,-,N/A,,Clear,60,2013-01-10 12:55:00
6:15 AM,3.2,-0.4,85,30.06,10.0,SSE,3.5,-,N/A,,Clear,160,2013-01-10 13:15:00
6:35 AM,3.2,-2.2,78,30.05,10.0,Calm,Calm,-,N/A,,Clear,0,2013-01-10 13:35:00
6:55 AM,3.2,-2.2,78,30.05,10.0,North,8.1,-,N/A,,Clear,360,2013-01-10 13:55:00
7:15 AM,3.2,-0.4,85,30.04,10.0,North,6.9,-,N/A,,Clear,10,2013-01-10 14:15:00
7:35 AM,3.2,1.4,92,30.04,10.0,North,6.9,-,N/A,,Clear,360,2013-01-10 14:35:00
7:55 AM,6.8,1.4,79,30.03,10.0,North,8.1,-,N/A,,Clear,350,2013-01-10 14:55:00
8:15 AM,8.6,3.2,79,30.04,10.0,North,5.8,-,N/A,,Clear,350,2013-01-10 15:15:00
8:35 AM,10.4,5.0,79,30.04,10.0,NNE,3.5,-,N/A,,Clear,20,2013-01-10 15:35:00
8:55 AM,10.4,3.2,73,30.04,10.0,ESE,4.6,-,N/A,,Clear,120,2013-01-10 15:55:00
9:15 AM,10.4,5.0,79,30.02,10.0,SSE,5.8,-,N/A,,Clear,150,2013-01-10 16:15:00
9:35 AM,12.2,6.8,79,30.02,10.0,Calm,Calm,-,N/A,,Clear,0,2013-01-10 16:35:00
9:55 AM,15.8,10.4,79,30.02,10.0,Calm,Calm,-,N/A,,Clear,0,2013-01-10 16:55:00
10:15 AM,17.6,10.4,73,30.02,10.0,Calm,Calm,-,N/A,,Clear,0,2013-01-10 17:15:00
10:35 AM,21.2,12.2,68,30.01,10.0,NE,3.5,-,N/A,,Clear,50,2013-01-10 17:35:00
10:55 AM,23.0,10.4,59,30.01,10.0,Calm,Calm,-,N/A,,Clear,0,2013-01-10 17:55:00
11:15 AM,23.0,12.2,63,30.01,10.0,SSE,4.6,-,N/A,,Clear,150,2013-01-10 18:15:00
11:35 AM,24.8,12.2,59,30.00,10.0,ESE,5.8,-,N/A,,Clear,120,2013-01-10 18:35:00
11:55 AM,26.6,14.0,59,29.97,10.0,SE,5.8,-,N/A,,Clear,130,2013-01-10 18:55:00
12:15 PM,30.2,15.8,55,29.96,10.0,SE,3.5,-,N/A,,Clear,140,2013-01-10 19:15:00
12:35 PM,33.8,15.8,48,29.95,10.0,SE,4.6,-,N/A,,Clear,140,2013-01-10 19:35:00
12:55 PM,35.6,14.0,41,29.94,10.0,Calm,Calm,-,N/A,,Clear,0,2013-01-10 19:55:00
1:15 PM,37.4,12.2,36,29.92,10.0,SSE,3.5,-,N/A,,Clear,150,2013-01-10 20:15:00
1:35 PM,39.2,12.2,33,29.91,10.0,SSE,3.5,-,N/A,,Clear,150,2013-01-10 20:35:00
1:55 PM,41.0,10.4,29,29.90,10.0,Calm,Calm,-,N/A,,Clear,0,2013-01-10 20:55:00
2:15 PM,41.0,12.2,31,29.89,10.0,Calm,Calm,-,N/A,,Clear,0,2013-01-10 21:15:00
2:35 PM,42.8,10.4,27,29.88,10.0,Calm,Calm,-,N/A,,Clear,0,2013-01-10 21:35:00
2:55 PM,41.0,10.4,29,29.88,10.0,West,5.8,-,N/A,,Clear,260,2013-01-10 21:55:00
3:15 PM,39.2,12.2,33,29.88,10.0,Calm,Calm,-,N/A,,Clear,0,2013-01-10 22:15:00
3:35 PM,39.2,12.2,33,29.87,10.0,Calm,Calm,-,N/A,,Clear,0,2013-01-10 22:35:00
3:55 PM,39.2,12.2,33,29.87,10.0,Calm,Calm,-,N/A,,Clear,0,2013-01-10 22:55:00
4:15 PM,37.4,12.2,36,29.87,10.0,Calm,Calm,-,N/A,,Clear,0,2013-01-10 23:15:00
4:35 PM,33.8,10.4,38,29.87,10.0,SW,8.1,-,N/A,,Clear,230,2013-01-10 23:35:00
4:55 PM,32.0,12.2,44,29.88,10.0,WSW,3.5,-,N/A,,Clear,250,2013-01-10 23:55:00
5:15 PM,33.8,12.2,41,29.86,10.0,Calm,Calm,-,N/A,,Partly Cloudy,0,2013-01-11 00:15:00
5:35 PM,30.2,12.2,47,29.84,10.0,Calm,Calm,-,N/A,,Clear,0,2013-01-11 00:35:00
5:55 PM,24.8,12.2,59,29.86,10.0,Calm,Calm,-,N/A,,Partly Cloudy,0,2013-01-11 00:55:00
6:15 PM,24.8,12.2,59,29.85,10.0,Calm,Calm,-,N/A,,Partly Cloudy,0,2013-01-11 01:15:00
6:35 PM,26.6,12.2,55,29.84,10.0,Calm,Calm,-,N/A,,Clear,0,2013-01-11 01:35:00
6:55 PM,26.6,15.8,64,29.84,10.0,East,3.5,-,N/A,,Clear,80,2013-01-11 01:55:00
7:15 PM,28.4,15.8,59,29.85,10.0,Calm,Calm,-,N/A,,Scattered Clouds,0,2013-01-11 02:15:00
7:35 PM,28.4,15.8,59,29.84,10.0,Calm,Calm,-,N/A,,Overcast,0,2013-01-11 02:35:00
7:55 PM,28.4,15.8,59,29.82,10.0,NNE,6.9,-,N/A,,Overcast,20,2013-01-11 02:55:00
8:15 PM,28.4,15.8,59,29.81,10.0,North,4.6,-,N/A,,Overcast,10,2013-01-11 03:15:00
8:35 PM,30.2,14.0,51,29.82,10.0,Calm,Calm,-,N/A,,Overcast,0,2013-01-11 03:35:00
8:55 PM,28.4,14.0,55,29.81,10.0,NNE,5.8,-,N/A,,Overcast,30,2013-01-11 03:55:00
9:15 PM,28.4,15.8,59,29.81,10.0,NNE,4.6,-,N/A,,Overcast,30,2013-01-11 04:15:00
9:35 PM,30.2,14.0,51,29.80,10.0,Calm,Calm,-,N/A,,Overcast,0,2013-01-11 04:35:00
9:55 PM,28.4,14.0,55,29.80,10.0,Calm,Calm,-,N/A,,Overcast,0,2013-01-11 04:55:00
10:15 PM,30.2,14.0,51,29.79,10.0,Calm,Calm,-,N/A,,Overcast,0,2013-01-11 05:15:00
10:35 PM,30.2,14.0,51,29.79,10.0,SW,4.6,-,N/A,,Overcast,230,2013-01-11 05:35:00
10:55 PM,30.2,15.8,55,29.77,10.0,SW,5.8,-,N/A,,Overcast,220,2013-01-11 05:55:00
11:15 PM,28.4,15.8,59,29.76,10.0,SSE,4.6,-,N/A,,Overcast,160,2013-01-11 06:15:00
11:35 PM,28.4,15.8,59,29.75,10.0,ESE,5.8,-,N/A,,Overcast,120,2013-01-11 06:35:00
11:55 PM,28.4,17.6,64,29.74,10.0,ESE,5.8,-,N/A,,Overcast,110,2013-01-11 06:55:00